sat.trackr.live / text

‹ back to catalog

STARLINK-4206

NORAD 52847 · 2022-062T

PAYLOAD ACTIVE UNKNOWN

§ Identity

Operator
Country
US
Launch date
2022-06-17
Launch site
AFETR
Launch vehicle
Mass (kg)
RCS (m²)

Purposes: comms

External: N2YO · Heavens-Above · Gunter

§ Orbital elements

Epoch: 2026-09-19T13:58:23.609280Z

Period
93.85 min
Inclination
53.1607°
Eccentricity
0.0001248
Mean motion
15.34410309 rev/d
Perigee alt
461.8 km
Apogee alt
463.5 km
Semi-major
6,840.8 km
B*
8.3806e-5
RAAN
233.7655°
Arg perigee
86.7954°
Mean anomaly
273.3192°
Rev number
23,519

§ Raw data

STARLINK-42061 52847U 22062T   26262.58221770  .00002457  00000+0  83806-4 0  99942 52847  53.1607 233.7655 0001248  86.7954 273.3192 15.34410309235192

JSON: /api/v1/satellites/52847 · /tle

For live sub-satellite position, see the globe view (requires WebGL).

§ Visibility from observer

Set your observer location to see the next 7 days of passes ≥ 10°. The values pass through the URL so the page stays shareable.

No JS? Fill the form by hand. The geolocation button needs JavaScript.